Tracking 22879 objects as of 21-Apr-2021
HD Live streaming from Space Station
objects crossing your sky now

STARLINK-2031

Track STARLINK-2031 now!
10-day predictions
STARLINK-2031 is classified as:


NORAD ID: 47648
Int'l Code: 2021-012AE
Perigee: 375.8 km
Apogee: 377.6 km
Inclination: 53.0 °
Period: 91.9 minutes
Semi major axis: 6747 km
RCS: Unknown
Launch date: February 16, 2021
Source: United States (US)
Launch site: AIR FORCE EASTERN TEST RANGE (AFETR)
aabbcc
Your satellite tracking list
Your tracking list is empty




NASA's NSSDC Master Catalog

Two Line Element Set (TLE):
1 47648U 21012AE  21110.58335648 -.00665134  00000-0 -68345-2 0  9997
2 47648  53.0464 145.9813 0001320  88.1172  92.2448 15.66291385  1777
Source of the keplerian elements: AFSPC